sat.trackr.live / text

‹ back to catalog

STARLINK-3923

NORAD 52489 · 2022-049AQ

PAYLOAD ACTIVE UNKNOWN

§ Identity

Operator
Country
US
Launch date
2022-05-06
Launch site
AFETR
Launch vehicle
Mass (kg)
RCS (m²)

Purposes: comms

External: N2YO · Heavens-Above · Gunter

§ Orbital elements

Epoch: 2026-09-20T00:21:32.071392Z

Period
93.90 min
Inclination
53.1557°
Eccentricity
0.0001231
Mean motion
15.33548485 rev/d
Perigee alt
464.4 km
Apogee alt
466.1 km
Semi-major
6,843.4 km
B*
2.3035e-5
RAAN
256.0679°
Arg perigee
83.5779°
Mean anomaly
276.5363°
Rev number
24,173

§ Raw data

STARLINK-39231 52489U 22049AQ  26263.01495453  .00000385  00000+0  23035-4 0  99972 52489  53.1557 256.0679 0001231  83.5779 276.5363 15.33548485241732

JSON: /api/v1/satellites/52489 · /tle

For live sub-satellite position, see the globe view (requires WebGL).

§ Visibility from observer

Set your observer location to see the next 7 days of passes ≥ 10°. The values pass through the URL so the page stays shareable.

No JS? Fill the form by hand. The geolocation button needs JavaScript.